一网星座-0651星 (ONEWEB-0651)

导读 | 星芒AI

ONEWEB-0651 是 OneWeb 卫星通信公司发射的低轨通信卫星之一,属于其全球宽带互联网星座计划的一部分。该卫星运行在约 1200 公里的近地轨道,旨在为全球用户提供高速、低延迟的互联网服务。OneWeb 的星座由数百颗卫星组成,专注于填补地面网络覆盖不足的地区,如偏远农村、海洋和空中。ONEWEB-0651 的成功部署有助于增强 OneWeb 的网络容量和可靠性,推动其在国际卫星通信市场的竞争力。

基本信息
目录编号:
56080
目录名称:
ONEWEB-0651
国际标识:
2023-043AL
轨道中心:
EARTH
卫星名称:
一网星座-0651星
卫星全名:
一网星座-0651星 (ONEWEB-0651)
卫星状态:
在轨 (已飞行995 天)
发射日期:
2023-03-26 UTC
国别 :
英国 (GB)
星等 :
--
轨道信息
数据来源 国际轨道数据 AOE轨道数据
星历时间 2025-12-15T05:49:42+0800
21小时前
查看轨道信息
2025-12-13T15:00:00+0800
2天前
查看轨道信息
半长轴 7579.902km 7579.909km
偏心率 0.0001828 0.0001751
轨道倾角 87.900° 87.899°
近地点辐角 86.812° 79.598°
升交点赤经 295.998° 296.322°
平近点角 273.322° 182.805°
近地点 1200.381km 1200.446km
远地点 1203.153km 1203.102km
周期 109.460分钟 109.460分钟
每日圈数 13.155503 13.155483
详细信息
平衡模式:
三轴稳定
覆盖范围:
全球
运营商:
一网卫星公司
运营商所在国:
英国
制造商(研发单位):
一网卫星公司
制造商所在国:
英国
使用方式:
暂无
卫星简介
OneWeb卫星网络由648颗重约125公斤的微型卫星组成,运行在1200公里的轨道上。 每颗卫星都能够提供至少每秒8千兆位的吞吐量,以使用其高吞吐量的Ku频段有效载荷为家庭和移动平台提供互联网接入。该卫星仍在工作。
2D轨道图
3D轨道图
轨道高度分析图
轨道倾角分析图
轨道综合分析图
查看轨道综合分析图